Simultaneous Nadir Overpasses (SNOs) Predictions

Prediction of SNOs between GOES-16 and TERRA Satellite Orbit:

Table of predicted SNOs for the next 14.0 days since TLE Epoch: 5/23/2025
Index Date Time (GOES-16) GOES-16 Lat,Lon TERRA Lat,Lon Distance(km) Time Diff (sec)
1 05/26/2025 03:55:37 -0.06, -98.76 0.00, -98.35 46.39 80
2 05/26/2025 16:17:47 0.05, -99.06 0.89,-103.11 459.22 80
3 05/28/2025 15:56:04 0.05,-100.11 -0.27, -98.55 177.52 80
4 05/29/2025 04:18:22 -0.05,-100.35 -0.69,-103.33 338.99 80
5 05/31/2025 03:56:39 -0.04,-101.40 0.49, -98.77 298.36 80
6 05/31/2025 16:18:49 0.04,-101.71 0.41,-103.53 207.03 80
7 06/02/2025 15:57:06 0.03,-102.76 -0.78, -98.97 431.14 80
8 06/03/2025 04:19:24 -0.03,-103.01 -0.16,-103.76 84.84 80
9 06/05/2025 16:17:10 0.03,-104.38 -0.08,-103.95 48.87 80
10 06/06/2025 04:39:26 -0.02,-104.62 -0.90,-108.73 466.94 80
